{"data":{"norad_id":67465,"epoch":"2026-09-19T03:50:14.130528Z","epoch_age_seconds":188073,"freshness":"STALE","line1":"1 67465U 26008W   26262.15988577  .00010878  00000+0  40415-3 0  9992","line2":"2 67465  42.9945 192.3701 0000704 297.3435  62.7344 15.27585403 39165","mean_motion":15.27585403,"eccentricity":7.04e-5,"inclination_deg":42.9945,"raan_deg":192.3701,"arg_perigee_deg":297.3435,"mean_anomaly_deg":62.7344,"bstar":0.00040415,"rev_number":3916,"period_min":94.266415296455,"perigee_km":482.54989119942,"apogee_km":483.51594392382,"semimajor_km":6861.1699175616,"source":"CELESTRAK","updated_at":"2026-09-20T09:00:43.552294Z"}}